Location: Rancho Del Sol Observatory
(38.7214°N, 120.6350°W)
Time: 05:13:45
(UTC-08:00)

Courier 1B Rocket - Visible Passes

Search period start: 20 January 2020 00:00
Search period end: 30 January 2020 00:00
Orbit: 920 x 1202 km, 28.2° (Epoch: 19 January)

Date Brightness Start Highest point End Pass type
(mag) Time Alt. Az. Time Alt. Az. Time Alt. Az.
20 Jan 7.3 18:45:05 10° SW 18:47:53 13° SSW 18:50:41 10° S visible
21 Jan 7.2 17:43:09 10° WSW 17:47:11 18° SSW 17:51:12 10° SSE visible
23 Jan 7.5 17:35:27 10° SW 17:38:11 13° SSW 17:40:53 10° S visible
